Temp
-13 -13 -12 -12 -12 -12 -12 -12 -12 -11 -12 -12 -12 -12 -12 -12 -12 -12 -12 -12 -13 -12 -12 -12 -12 -12 -12 -12 -12 -12 -12 -12 -13 -13 -12 -12 -12 -12 -12 -12 -12 -12
-13 -13 -13 -12 -12 -12 -12 -12 -12 -12 -12 -12 -12 -12 -12 -12 -12 -12 -12 -12 -13 -13 -12 -12 -12 -12 -12 -12 -12 -12 -12 -12 -12 -12 -12 -12 -12 -12 -12 -12 -12 -11
-13 -13 -13 -13 -12 -12 -12 -12 -12 -12 -12 -12 -12 -12 -12 -12 -12 -12 -12 -12 -13 -13 -12 -12 -12 -12 -12 -12 -12 -12 -12 -12 -12 -12 -12 -12 -12 -12 -12 -12 -11 -11
-13 -13 -13 -13 -12 -12 -12 -12 -12 -12 -12 -12 -12 -12 -12 -13 -13 -13 -13 -13 -13 -13 -13 -12 -12 -12 -12 -12 -12 -12 -12 -12 -12 -12 -12 -12 -12 -12 -12 -12 -11 -11
-13 -13 -13 -13 -13 -12 -12 -12 -12 -12 -12 -12 -12 -12 -12 -13 -13 -13 -13 -13 -13 -13 -13 -13 -12 -12 -12 -12 -12 -12 -13 -13 -12 -12 -12 -12 -12 -12 -12 -12 -11 -11
-13 -13 -13 -13 -13 -12 -12 -12 -12 -12 -12 -12 -12 -12 -12 -13 -13 -13 -13 -13 -13 -13 -13 -13 -13 -12 -12 -12 -12 -12 -13 -13 -12 -12 -12 -12 -12 -12 -12 -12 -11 -11
-13 -13 -13 -13 -12 -12 -12 -12 -12 -12 -11 -11 -12 -12 -13 -13 -13 -13 -13 -13 -13 -13 -13 -13 -13 -13 -12 -12 -12 -12 -13 -13 -13 -12 -12 -12 -12 -12 -12 -12 -11 -11
-13 -13 -13 -13 -12 -12 -12 -12 -12 -12 -11 -12 -12 -12 -13 -13 -13 -13 -13 -13 -13 -13 -13 -13 -13 -13 -12 -12 -12 -12 -13 -13 -13 -13 -12 -12 -12 -12 -12 -12 -12 -12
-13 -13 -13 -13 -12 -12 -12 -12 -12 -12 -12 -12 -12 -12 -13 -13 -13 -13 -13 -13 -13 -13 -13 -13 -13 -13 -12 -12 -12 -13 -13 -13 -13 -13 -13 -13 -12 -12 -12 -12 -12 -12
-13 -13 -13 -13 -12 -12 -12 -12 -12 -12 -12 -12 -12 -12 -13 -13 -13 -13 -13 -13 -13 -13 -13 -13 -13 -13 -12 -12 -12 -13 -13 -13 -13 -13 -13 -13 -12 -12 -12 -12 -12 -12
-13 -13 -13 -13 -12 -12 -12 -12 -12 -12 -12 -12 -12 -12 -13 -13 -13 -13 -13 -13 -13 -13 -13 -13 -13 -13 -13 -12 -13 -13 -13 -13 -13 -13 -13 -13 -13 -12 -12 -12 -12 -12
-13 -13 -13 -13 -13 -13 -12 -13 -13 -12 -12 -12 -12 -12 -13 -13 -13 -13 -13 -13 -13 -13 -13 -13 -13 -13 -13 -13 -13 -13 -13 -13 -13 -13 -13 -13 -13 -12 -12 -12 -12 -12
-13 -13 -13 -13 -13 -13 -13 -13 -13 -13 -13 -12 -12 -13 -13 -13 -13 -13 -13 -13 -13 -13 -13 -13 -13 -13 -13 -13 -13 -13 -13 -13 -13 -13 -13 -13 -13 -13 -12 -13 -13 -13
-13 -13 -13 -13 -13 -13 -13 -13 -13 -13 -13 -13 -13 -13 -13 -13 -13 -13 -13 -13 -13 -13 -13 -13 -13 -13 -13 -13 -13 -13 -13 -13 -13 -13 -13 -13 -13 -13 -13 -13 -13 -13
-13 -13 -13 -13 -13 -13 -13 -13 -13 -13 -13 -13 -13 -13 -13 -13 -13 -13 -13 -13 -13 -13 -13 -13 -13 -13 -13 -13 -13 -13 -13 -13 -13 -13 -13 -13 -13 -13 -13 -13 -13 -13
-13 -13 -13 -13 -13 -13 -13 -13 -13 -13 -13 -13 -13 -13 -13 -14 -13 -13 -13 -13 -13 -13 -13 -13 -13 -13 -13 -13 -13 -13 -13 -13 -13 -13 -13 -13 -13 -13 -13 -13 -13 -13
-13 -13 -13 -13 -13 -13 -13 -13 -13 -13 -13 -13 -13 -13 -13 -13 -13 -13 -13 -13 -13 -13 -13 -13 -13 -13 -13 -13 -13 -13 -13 -13 -13 -13 -13 -13 -13 -13 -13 -13 -13 -13
-13 -13 -13 -12 -13 -13 -13 -13 -13 -13 -13 -13 -13 -13 -13 -13 -13 -13 -13 -13 -13 -13 -13 -13 -13 -13 -13 -13 -13 -13 -13 -13 -13 -13 -13 -13 -13 -13 -13 -13 -13 -13
-12 -13 -13 -13 -13 -13 -13 -13 -13 -13 -13 -13 -13 -13 -13 -13 -13 -13 -13 -13 -13 -13 -13 -13 -14 -13 -13 -13 -13 -13 -13 -13 -13 -13 -13 -13 -13 -13 -13 -13 -13 -13
-12 -12 -13 -13 -13 -13 -13 -13 -13 -13 -13 -13 -13 -13 -13 -13 -13 -13 -13 -13 -13 -13 -13 -13 -14 -13 -13 -14 -14 -13 -13 -13 -13 -13 -13 -13 -13 -13 -13 -13 -13 -13
-12 -12 -12 -13 -13 -13 -12 -13 -13 -13 -13 -13 -13 -13 -13 -13 -13 -13 -13 -13 -13 -13 -13 -14 -14 -14 -14 -14 -14 -13 -13 -13 -13 -13 -13 -13 -13 -13 -13 -13 -13 -13
-12 -12 -12 -13 -13 -13 -12 -13 -13 -13 -13 -13 -13 -13 -13 -13 -13 -13 -13 -13 -13 -13 -13 -14 -14 -14 -14 -14 -14 -14 -13 -13 -13 -13 -13 -13 -13 -13 -13 -13 -14 -14
-12 -12 -12 -13 -13 -12 -12 -13 -13 -13 -13 -13 -13 -13 -13 -13 -13 -13 -13 -13 -13 -13 -13 -14 -14 -14 -14 -14 -14 -14 -14 -13 -13 -13 -13 -13 -13 -13 -13 -14 -14 -14
-12 -12 -12 -13 -12 -12 -12 -13 -13 -13 -13 -13 -13 -13 -13 -13 -13 -13 -13 -13 -13 -13 -13 -14 -14 -14 -14 -14 -14 -14 -14 -14 -14 -14 -14 -13 -13 -13 -14 -14 -14 -14
-12 -12 -12 -12 -12 -12 -12 -13 -13 -13 -13 -13 -13 -13 -13 -13 -13 -13 -13 -13 -13 -13 -13 -14 -14 -14 -14 -14 -14 -14 -14 -14 -14 -14 -14 -14 -14 -14 -14 -14 -14 -14
-12 -12 -12 -12 -12 -12 -13 -13 -13 -13 -13 -13 -13 -13 -13 -13 -13 -13 -13 -13 -13 -13 -13 -13 -14 -14 -14 -14 -14 -14 -14 -14 -14 -14 -14 -14 -14 -14 -14 -14 -14 -14
Height
5818 5821 5824 5826 5829 5831 5833 5835 5836 5838 5840 5841 5842 5843 5843 5843 5843 5841 5840 5838 5836 5835 5835 5836 5837 5837 5838 5837 5836 5836 5834 5833 5831 5830 5829 5826 5823 5820 5817 5813 5812 5811
5816 5819 5821 5823 5826 5829 5830 5832 5833 5835 5837 5838 5840 5841 5841 5841 5841 5839 5838 5836 5835 5833 5833 5834 5834 5834 5835 5835 5834 5833 5832 5830 5828 5827 5826 5824 5822 5820 5817 5814 5811 5810
5813 5816 5818 5820 5823 5826 5828 5829 5830 5832 5834 5835 5837 5838 5838 5838 5838 5837 5836 5835 5833 5831 5830 5831 5832 5831 5832 5833 5833 5832 5830 5828 5825 5824 5823 5822 5821 5819 5817 5814 5811 5809
5811 5813 5815 5817 5820 5822 5824 5826 5828 5830 5832 5833 5834 5835 5835 5836 5836 5835 5834 5833 5832 5830 5828 5828 5829 5829 5829 5830 5830 5830 5829 5827 5824 5822 5821 5819 5819 5817 5816 5813 5810 5808
5807 5810 5813 5815 5817 5819 5821 5824 5826 5827 5829 5830 5831 5832 5833 5834 5834 5833 5832 5831 5830 5829 5827 5826 5826 5826 5826 5827 5828 5828 5828 5826 5824 5822 5820 5818 5817 5815 5814 5812 5810 5807
5804 5807 5810 5812 5814 5816 5819 5822 5824 5825 5826 5828 5829 5829 5830 5831 5831 5831 5830 5829 5828 5827 5826 5825 5823 5823 5823 5824 5824 5825 5825 5824 5822 5821 5818 5816 5815 5813 5812 5810 5808 5806
5801 5804 5807 5809 5811 5814 5817 5820 5821 5822 5823 5825 5826 5827 5827 5828 5828 5828 5828 5827 5826 5825 5825 5824 5823 5821 5820 5820 5820 5821 5821 5820 5819 5818 5817 5815 5813 5812 5810 5809 5807 5805
5798 5801 5804 5806 5809 5811 5814 5817 5819 5820 5821 5822 5823 5824 5824 5825 5825 5825 5825 5824 5824 5823 5823 5823 5822 5820 5819 5818 5818 5818 5818 5817 5817 5816 5815 5813 5812 5811 5809 5807 5805 5804
5794 5797 5800 5802 5805 5808 5810 5813 5816 5818 5819 5819 5819 5820 5822 5822 5822 5822 5822 5822 5821 5821 5821 5821 5820 5819 5817 5817 5816 5815 5815 5815 5814 5814 5813 5811 5810 5809 5808 5806 5804 5802
5790 5793 5796 5799 5802 5805 5807 5809 5812 5814 5816 5816 5816 5817 5818 5819 5819 5819 5819 5819 5819 5818 5818 5818 5818 5817 5815 5814 5814 5813 5812 5812 5812 5812 5811 5809 5808 5807 5806 5804 5802 5801
5786 5789 5793 5796 5799 5802 5805 5806 5808 5810 5812 5812 5813 5814 5814 5815 5816 5817 5816 5816 5816 5816 5816 5816 5815 5814 5813 5812 5811 5810 5810 5810 5810 5810 5809 5808 5806 5806 5804 5802 5801 5800
5781 5785 5789 5793 5796 5799 5801 5803 5804 5806 5808 5808 5809 5810 5811 5812 5813 5814 5814 5813 5813 5813 5813 5813 5813 5812 5810 5809 5808 5808 5808 5808 5808 5807 5806 5806 5805 5804 5802 5801 5800 5799
5778 5781 5785 5789 5793 5795 5798 5799 5800 5802 5803 5805 5806 5806 5807 5809 5810 5810 5810 5810 5810 5810 5810 5811 5810 5809 5808 5806 5806 5805 5805 5805 5805 5805 5804 5803 5802 5802 5800 5799 5798 5797
5775 5778 5782 5786 5789 5792 5794 5795 5796 5798 5799 5801 5802 5803 5804 5806 5807 5807 5807 5807 5807 5807 5807 5808 5807 5806 5805 5804 5803 5803 5802 5802 5802 5802 5801 5801 5800 5799 5798 5797 5796 5795
5772 5775 5779 5782 5786 5788 5790 5792 5793 5794 5796 5797 5798 5799 5801 5802 5803 5803 5803 5803 5804 5804 5804 5805 5804 5803 5803 5802 5801 5800 5800 5800 5800 5799 5799 5799 5798 5797 5796 5795 5794 5793
5768 5772 5775 5779 5782 5784 5786 5788 5789 5791 5792 5793 5795 5796 5797 5798 5799 5800 5800 5800 5801 5800 5800 5801 5801 5800 5799 5799 5798 5798 5797 5797 5797 5796 5796 5796 5796 5795 5794 5794 5793 5791
5765 5768 5771 5775 5778 5780 5782 5784 5785 5787 5788 5789 5792 5793 5794 5794 5795 5796 5797 5797 5797 5797 5797 5798 5797 5796 5796 5795 5795 5795 5795 5794 5794 5794 5793 5793 5793 5793 5792 5791 5790 5789
5761 5764 5767 5771 5774 5776 5778 5780 5781 5783 5784 5786 5788 5790 5790 5791 5792 5793 5793 5794 5794 5794 5794 5794 5794 5793 5792 5792 5792 5792 5792 5791 5791 5791 5791 5790 5790 5790 5789 5789 5788 5787
5757 5760 5763 5766 5769 5772 5773 5776 5778 5780 5781 5783 5784 5785 5786 5787 5788 5789 5790 5790 5790 5790 5791 5791 5790 5789 5789 5789 5789 5788 5789 5789 5788 5788 5788 5787 5787 5787 5787 5786 5785 5784
5752 5756 5759 5762 5764 5766 5769 5772 5774 5776 5778 5779 5780 5781 5782 5783 5784 5785 5786 5786 5786 5787 5787 5788 5787 5786 5786 5786 5786 5786 5786 5786 5786 5785 5785 5785 5784 5784 5784 5783 5783 5782
5747 5751 5755 5757 5759 5761 5764 5768 5770 5772 5773 5775 5775 5777 5778 5779 5780 5781 5782 5782 5782 5783 5784 5784 5783 5782 5782 5783 5783 5783 5783 5783 5783 5783 5782 5782 5781 5781 5781 5780 5780 5779
5743 5747 5750 5753 5754 5757 5760 5763 5766 5768 5769 5770 5771 5773 5774 5775 5776 5777 5778 5778 5778 5778 5780 5781 5779 5779 5779 5780 5780 5780 5780 5780 5780 5780 5780 5779 5778 5778 5777 5777 5776 5776
5739 5743 5746 5749 5750 5753 5757 5760 5762 5763 5765 5766 5767 5769 5770 5771 5771 5772 5774 5774 5774 5775 5776 5777 5776 5776 5776 5777 5777 5777 5777 5777 5777 5777 5777 5776 5775 5775 5774 5774 5773 5772
5736 5739 5742 5745 5747 5750 5753 5755 5757 5759 5760 5762 5763 5764 5765 5766 5767 5768 5769 5769 5770 5771 5773 5773 5772 5772 5773 5774 5774 5774 5774 5774 5774 5774 5773 5772 5772 5771 5771 5771 5770 5769
5732 5736 5738 5741 5743 5746 5749 5751 5753 5754 5756 5757 5758 5759 5761 5762 5763 5764 5764 5765 5766 5767 5769 5769 5769 5769 5770 5770 5770 5771 5771 5771 5771 5771 5770 5769 5769 5768 5768 5768 5767 5766
5729 5731 5734 5737 5740 5742 5745 5747 5748 5749 5751 5752 5754 5755 5756 5757 5759 5760 5760 5761 5762 5763 5765 5766 5766 5766 5767 5767 5767 5767 5767 5767 5768 5767 5767 5766 5766 5765 5766 5765 5764 5763
Wind_Speed
42 41 38 38 38 35 33 32 31 30 30 28 25 25 27 26 24 25 24 24 24 26 27 27 26 26 24 24 24 25 26 28 28 28 29 29 29 30 33 35 35 32
43 42 40 39 39 35 33 32 31 31 30 28 25 25 27 25 24 25 24 23 24 25 27 27 27 27 25 24 25 26 28 30 30 30 30 29 28 28 31 34 33 31
43 42 42 40 38 36 34 33 32 31 29 27 26 26 26 24 23 24 25 23 23 25 26 27 27 28 27 25 25 25 28 30 31 32 31 30 28 27 29 31 31 29
42 41 42 41 39 38 35 33 31 30 27 26 27 27 26 24 23 25 25 24 23 25 26 27 28 29 28 26 25 25 26 29 30 31 31 30 28 27 28 28 28 27
42 41 42 41 40 39 36 32 30 28 26 27 28 28 26 24 23 25 26 25 24 24 26 28 29 29 28 27 26 25 25 27 29 30 30 29 27 27 27 26 25 25
44 41 41 42 41 39 35 31 29 28 27 28 29 29 27 25 24 25 26 26 25 25 26 28 30 30 29 28 26 25 26 27 28 28 29 28 27 27 26 25 24 24
45 40 40 40 39 38 36 32 30 29 29 30 29 29 28 26 25 25 26 27 26 26 26 27 30 31 30 29 27 26 27 27 27 27 27 26 26 26 25 24 22 22
41 38 37 38 37 37 36 34 32 31 32 32 30 29 28 27 27 27 27 27 28 27 26 27 29 30 29 28 27 26 27 27 27 27 26 25 24 24 24 22 21 20
40 38 38 38 37 36 35 35 34 34 33 32 31 30 29 28 29 29 28 28 29 29 27 27 29 30 28 27 26 26 27 27 27 26 25 24 24 23 22 21 20 19
40 39 38 38 36 34 35 35 35 34 33 31 31 31 30 30 30 30 29 28 30 30 28 27 29 29 28 26 25 26 26 27 27 26 24 23 23 23 21 20 19 18
42 40 39 37 35 34 35 36 36 34 32 32 32 32 32 32 32 31 29 29 30 31 29 28 29 29 28 26 25 25 26 26 27 26 23 22 22 22 20 19 18 17
44 42 40 37 36 35 35 37 37 35 34 33 32 33 35 35 33 31 30 30 31 31 29 27 29 29 27 26 25 25 26 26 26 25 23 22 22 22 20 18 18 17
47 45 42 39 37 36 36 37 38 37 36 34 34 35 37 36 34 32 31 30 31 31 29 27 28 28 27 25 25 25 27 27 27 25 23 22 22 22 19 18 18 17
49 47 45 42 39 39 39 39 39 39 37 36 36 37 39 38 35 33 31 31 31 32 29 27 28 28 25 25 25 25 27 27 27 26 23 22 23 22 19 18 19 18
52 50 48 45 43 42 41 41 41 40 39 38 38 39 40 38 36 33 32 31 32 33 29 27 28 27 25 24 25 25 27 27 27 26 24 23 23 22 19 19 19 20
53 52 50 47 45 44 43 43 42 41 40 40 40 40 40 39 36 34 32 32 33 33 29 27 28 27 25 24 24 25 27 27 27 26 24 23 23 22 20 20 20 20
54 53 50 47 45 44 44 44 43 42 42 42 41 40 40 38 36 34 33 33 34 33 30 27 28 27 25 25 24 25 27 28 27 26 25 24 24 22 21 21 21 21
53 51 49 46 44 43 44 44 43 43 43 42 40 39 39 38 36 34 34 34 34 32 29 27 28 28 26 24 25 26 27 28 27 26 25 25 24 23 22 21 22 22
50 49 48 45 43 43 43 43 42 42 42 41 40 39 39 37 35 33 34 34 33 31 28 27 28 28 26 24 25 27 28 28 27 26 25 25 25 24 23 22 23 23
48 46 45 44 42 42 41 40 39 39 39 39 39 39 37 35 34 34 35 34 32 30 28 27 28 27 25 24 26 27 28 28 27 26 25 26 25 25 24 23 24 24
44 42 41 42 42 41 39 37 36 36 36 38 39 38 35 34 35 35 34 32 31 29 27 26 28 27 25 25 26 28 28 28 27 26 25 26 26 25 24 24 24 24
41 38 38 40 41 39 36 34 34 34 35 36 37 36 34 35 36 35 32 31 31 29 27 26 27 26 24 25 27 28 28 27 26 25 25 26 26 25 24 24 25 25
39 36 36 38 38 36 33 32 33 34 34 35 35 35 35 35 35 33 30 30 31 29 27 26 26 25 25 26 27 28 28 27 26 25 25 25 25 25 24 24 25 26
38 35 35 36 35 33 32 32 32 33 33 34 35 35 35 35 33 31 30 30 31 29 27 26 26 25 25 27 28 28 28 27 26 25 25 25 25 25 24 25 26 27
37 36 35 35 34 32 32 32 32 33 34 35 35 34 34 33 31 30 30 30 30 28 26 25 25 25 26 27 28 28 27 27 26 25 25 25 25 25 24 25 27 28
36 36 35 34 32 31 31 31 32 34 34 34 33 33 33 31 30 29 30 30 30 29 26 24 24 26 27 28 28 28 28 27 26 25 25 25 25 25 25 26 28 29
Wind_Direction
233 237 240 240 239 241 246 247 249 252 254 258 265 277 290 299 300 300 302 305 310 310 307 309 312 313 317 321 322 322 320 317 317 322 326 325 323 322 320 319 321 324
234 239 242 242 239 240 244 247 249 252 255 261 268 278 290 298 299 299 301 304 309 311 307 307 310 313 317 320 322 322 319 318 319 323 327 326 324 322 320 319 320 324
235 239 241 241 239 238 242 245 247 251 255 264 272 281 292 298 299 299 300 302 308 314 311 307 308 312 316 319 321 321 319 318 320 324 326 325 324 322 320 318 320 323
236 238 238 239 238 237 240 243 246 250 257 268 276 284 292 297 300 299 300 302 307 314 315 309 307 310 314 317 319 319 317 316 319 324 325 323 322 322 320 319 320 322
238 238 236 238 239 238 240 243 245 250 260 272 280 285 291 296 300 301 301 303 306 313 316 313 309 309 311 314 317 317 315 313 318 323 322 320 320 321 321 321 321 323
239 239 237 238 239 240 241 243 244 250 265 277 280 284 289 295 301 301 302 303 304 311 316 315 312 310 310 312 314 315 313 312 317 322 320 318 319 320 320 322 324 325
237 237 236 238 241 243 244 244 243 251 269 278 278 282 288 295 300 300 301 302 303 308 314 315 313 311 310 312 313 314 312 312 317 321 319 317 318 318 318 321 325 328
234 235 235 239 243 246 247 245 244 254 269 275 276 281 287 294 298 299 299 300 302 306 311 313 312 310 308 310 311 311 309 311 316 319 317 315 314 314 316 320 326 330
233 236 238 241 244 247 248 245 246 256 266 270 273 279 285 292 295 295 297 299 301 304 308 310 310 307 306 306 307 307 307 309 314 316 314 312 311 311 315 321 327 332
234 236 238 241 244 246 247 247 250 256 262 266 272 278 284 290 292 292 294 297 300 303 306 308 308 305 303 303 304 305 305 308 312 312 311 309 307 308 314 322 327 330
234 235 236 240 243 245 247 248 251 256 260 266 271 276 282 286 288 290 292 295 298 300 303 306 306 303 301 301 302 302 303 306 308 308 308 306 304 305 312 321 326 326
236 238 239 239 242 245 247 249 252 256 262 266 270 275 280 283 285 287 289 293 296 298 300 303 303 300 299 299 299 299 301 304 306 305 305 303 300 302 310 320 323 323
239 242 242 242 243 246 249 251 254 259 264 267 270 273 277 281 283 284 286 290 294 296 297 300 300 297 297 297 296 297 300 302 304 303 302 300 298 299 307 316 319 321
241 243 245 245 245 248 250 253 256 261 264 267 269 272 276 279 281 282 284 288 292 294 294 297 296 294 294 293 293 294 297 299 301 299 299 298 295 297 305 312 315 317
242 244 246 247 248 250 252 255 258 261 264 266 268 271 274 277 279 280 283 287 290 290 291 294 293 291 291 288 288 290 293 295 297 296 295 295 292 294 301 305 308 311
243 245 246 248 249 250 252 255 258 260 263 265 267 269 272 275 277 280 282 285 288 287 288 290 290 288 287 284 284 286 289 292 294 293 293 292 289 291 295 299 302 307
243 245 247 248 249 250 252 254 257 260 262 263 265 268 271 274 276 280 281 282 284 284 285 287 287 285 283 281 282 284 286 290 291 290 291 291 288 288 291 295 298 302
242 244 246 247 248 250 252 253 255 258 260 262 265 268 270 273 276 278 278 278 279 281 283 284 283 282 279 278 279 281 284 288 289 288 290 290 288 287 289 293 295 298
241 242 245 247 248 250 251 252 254 256 259 262 265 266 268 271 274 274 273 274 276 277 278 280 280 278 276 274 276 279 282 286 287 287 289 290 288 287 288 291 293 296
242 242 244 247 248 249 249 251 253 256 259 261 263 265 267 269 270 269 269 271 272 273 274 276 276 274 272 271 273 277 281 284 285 287 290 290 289 287 287 289 291 293
242 242 243 246 248 248 249 251 253 255 257 259 261 263 265 265 264 265 266 268 270 269 270 273 273 270 269 269 271 275 280 283 284 286 289 290 288 287 287 288 289 290
240 240 241 244 247 248 250 251 253 254 255 257 259 260 261 261 261 262 264 266 267 266 267 270 269 267 266 267 270 274 278 281 283 286 289 289 287 286 287 287 287 287
237 237 239 242 245 246 248 249 250 251 252 254 255 256 256 258 259 261 262 263 262 262 265 267 265 263 263 265 268 272 277 280 282 284 287 287 285 285 285 285 285 286
236 236 237 240 242 244 245 247 248 249 250 250 251 252 254 255 257 259 259 258 259 260 262 263 262 261 261 263 266 270 275 278 280 283 284 284 283 283 284 283 284 286
236 236 236 238 240 242 244 245 246 247 247 248 249 251 252 254 255 256 255 256 257 259 260 260 259 258 259 261 264 269 273 275 277 280 283 283 282 282 282 283 283 286
235 234 235 237 239 241 243 244 244 245 246 248 250 251 252 253 253 253 253 255 257 258 258 257 256 256 257 259 263 268 271 273 276 279 281 281 280 281 281 281 283 287